Погода Сангары

Погода Сангары : погода сейчас, прогноз погоды и архив. Всё, что Вы хотите узнать о погоде Сангары!

Хотите узнать прогноз погоды Сангары? Тогда Вам сюда: Погода Сангары

Поиск расширенной информации на нашем сайте:

Другие новости

Новости СМИ2

Главная страница сайта

Новости сайта

03.07.2017

Напоминаем, что на нашем специализированном сайте Метеоцентр.Азия вы можете получить высокодетализированные автоматические прогнозы погоды по пунктам России, СНГ и мира в авиационном формате (включающие направление и скорость ветра, видимость, явления погоды, количество и форму облачности, нижнюю и верхнюю границу облачности).

Рекомендуем: лесные жители белфакс

Погода Сангары - сегодня

Время (UTC), дата Ветер
(°,м/с) 
Видим.   Явления Облачность Т
(°С)
Тd
(°С)
f(%) Тe
(°С)
Pmin
(гПа)
dP
(гПа)
Po
(мм)
O2
(г/м3)
Тmin Tmax R s Состояние
почвы
18 20.07.17 тихо () {10}  20000 м    8/4 600 м средняя 
[Sc|Ac trans]
+10.1 +5.5 73 +10  1005.1  745  289           
21 20.07.17 270 (З) 20000 м    9/4 600 м средняя 
[Sc|Ac trans]
+9.8 +6.1 78 +9  1005.5  0.4  746  289           
00 21.07.17 280 (З) 20000 м    6/6 1080 м кучево-дожд. 
[Cb calv]
+10.3 +5.8 74 +10  1007.3  1.8  747  289  +9.8        сухая 
03 21.07.17 тихо ()   20000 м    9/9 1230 м 
[Sc diur, vesp]
+12.4 +5.6 63 +12  1008.4  1.2  748  287           
06 21.07.17 200 (Ю) 20000 м    4/4 1000 м кучево-дожд. 
[Cb calv]
+16 +5.6 50 +17  1009  0.7  748  284           
09 21.07.17 320 (СЗ) 20000 м    8/8 1140 м кучево-дожд. 
[Cb calv]
+13.6 +6.3 61 +15  1009.7  0.6  749  286           
12 21.07.17 270 (З) 20000 м    10/3 1000 м средняя, верхняя 
[Sc|Ac trans|Ci fib]
+13.8 +6.1 60 +14  1009.7  749  286    +16.6       
15 21.07.17 320 (СЗ) 20000 м    10/8 2000 м средняя, верхняя 
[Ac trans|Ci fib]
+11.6 +7.2 74 +13  1009.1  -0.7  748  288           
18 21.07.17 тихо ()   20000 м    6/0 средняя, верхняя 
[Ac trans|Ci fib]
+6 +4.9 93 +6  1009.4  0.1  748  294           
21 21.07.17 040 (СВ) 20000 м    6/0 средняя, верхняя 
[Ac trans|Ci fib]
+8.8 +4.5 74 +9  1009.5  0.1  748  291           
00 22.07.17 230 (ЮЗ) 20000 м    3/0 средняя 
[Ac lent]
+13.4 +4 53 +14  1009.4  0.2  749  287  +4.8        сухая 
03 22.07.17 280 (З) 20000 м    10/0 средняя, верхняя 
[Ac trans|Ci sp]
+15.5 +4.1 47 +16  1009.3  749  285           
06 22.07.17 280 (З) 20000 м    9/3 600 м верхняя 
[Cu hum|Ci sp]
+17.3 +3.9 41 +17  1009  -0.3  748  283           
09 22.07.17 230 (ЮЗ) 20000 м    8/3 600 м верхняя 
[Sc diur, vesp|Ci fib]
+18.9 +6 43 +20  1008  -0.9  748  281           
12 22.07.17 240 (ЮЗ) 20000 м    4/0 верхняя 
[Ci fib]
+18.3 +9.6 57 +21  1007.4  -0.6  747  280    +20       
15 22.07.17 280 (З) 20000 м    3/0 верхняя 
[Ci fib]
+14.6 +7.8 64 +15  1007.1  -0.5  747  284           
18 22.07.17 310 (СЗ) 20000 м    4/0 верхняя 
[Ci fib]
+11.6 +6.5 71 +12  1006.8  -0.3  747  287           
21 22.07.17 300 (СЗ) 20000 м    6/3 300 м верхняя 
[St|Ci fib]
+12 +10.3 89 +14  1006.3  -0.5  746  286           
00 23.07.17 310 (СЗ) 20000 м    6/3 600 м верхняя 
[Cu hum|Ci fib]
+15.8 +10.7 72 +18  1005.8  -0.4  746  282  +11.6        сухая 
03 23.07.17 290 (З) 20000 м    8/3 600 м верхняя 
[Cu hum|Ci fib]
+19 +9.6 54 +20  1005.3  -0.3  746  279           
06 23.07.17 300 (СЗ) 20000 м    8/1 600 м верхняя 
[Cu hum|Ci fib]
+20.8 +10.1 50 +22  1004.5  -0.8  745  277           
09 23.07.17 290 (З) 20000 м    6/1 1000 м верхняя 
[Cu hum|Ci fib]
+21.1 +11.6 55 +25  1003.9  -0.6  745  276           
12 23.07.17 280 (З) 20000 м    8/6 960 м средняя, верхняя 
[Sc diur, vesp|Ac trans|Ci fib]
+18.5 +12.6 68 +24  1004.2  0.3  745  279    +21.4       
15 23.07.17 320 (СЗ) 10 км    3/3 600 м 
[Sc]
+14.3 +11.7 84 +19  1004.7  0.2  745  283           
18 23.07.17 290 (З) 20000 м    8/4 600 м средняя 
[Sc|Ac trans]
+14 +12.2 89 +19  1004.9  0.2  745  283           
Время (UTC), дата Ветер
(°,м/с) 
Видим.   Явления Облачность Т
(°С)
Тd
(°С)
f(%) Тe
(°С)
Pmin
(гПа)
dP
(гПа)
Po
(мм)
O2
(г/м3)
Тmin Tmax R s Состояние
почвы

Для получения пояснительной информации подведите курсор к названию столбца.

ПОГОДА Сангары - архив

Всё, что Вы хотите узнать о погоде Сангары - удобно и подробно!

Выберите нужную дату (начиная с 1 января 2015* года) и нажмите кнопку "Найти".
Будут отображены архивные сводки погоды по пункту Сангары, начиная с указанной даты.


Отображать данные в формате CSV (для использования в таблицах Excel)


Внимание! Наш архив погоды предназначен исключительно для личного некоммерческого использования в познавательных целях. Если Вам необходимы официальные справки о состоянии погоды (для производственных, юридических, коммерческих и т.п. целей), обращайтесь в органы Росгидромета.

*Примечание: данная дата относится к архиву по метеостанциям СССР (Россия, СНГ, Балтия).
Архив по метеостанциям Зарубежной Европы и Азии (кроме Китая) хранится 10 дней, по другим регионам земного шара (Китай, Африка, Америка, Австралия, Океания) - 1 день.

Сангары - район местоположения метеостанции


Название, широта, долгота, высота метеостанции:
Сангары 64°ш. 127.5°д. 96 м над ур. моря [Российская Федерация]

Дополнительная информация

В oтличие oт бoльшинства пoгoдных сайтoв мы публикуем пoдрoбную метеoинфoрмацию в детальнoм прoфессиoнальнoм фoрмате.

Характеристики температуры и влажнoсти вoздуха измеряются на высoте 2 м в тени вдали oт зданий и деревьев.
Скoрoсть ветра измеряется на высoте 10 м (на урoвне рoста челoвека скoрoсть ветра ниже в 1.5-2 раза). Если метеoстанция нахoдится в гoрoде или в лесу, тo скoрoсть ветра занижена на 2-4 м/с пo сравнению с oткрытым местoм. Скoрoсть ветра над акватoриями крупных рек и oзёр, а также на вершинах хoлмoв на 2-5 м/с выше, чем в oбычных услoвиях.
Атмoсфернoе давление в разных тoчках местнoсти мoжет значительнo oтличаться oт давления на метеoстанции, в зависимoсти oт услoвий рельефа (при пoдъёме на 10 м давление пoнижается примернo на 1 мм рт.ст.).